Tracking 28790 objects as of 18-Apr-2024
HD Live streaming from Space Station
objects crossing your sky now

FENGYUN 1C DEB

Track FENGYUN 1C DEB now!
10-day predictions


NORAD ID: 30095
Int'l Code: 1999-025QY
Perigee: 539.4 km
Apogee: 864.9 km
Inclination: 99.3 °
Period: 98.7 minutes
Semi major axis: 7073 km
RCS: 0.0377 m2 (small)
Launch date: May 10, 1999
Source: People's Republic of China (PRC)
Launch site: Taiyaun Space Center, China (TSC)

Note: This is SATELLITE DEBRIS
Your satellite tracking list
Your tracking list is empty




NASA's NSSDC Master Catalog

Two Line Element Set (TLE):
1 30095U 99025QY  24109.02059448  .00019153  00000-0  27890-2 0  9997
2 30095  99.2790 303.1731 0230111  30.8653 330.5841 14.59441605904710
Source of the keplerian elements: AFSPC